When you browse on this site, cookies collect data to enhance your experience and personalize the content and advertising you see.
Visit our Privacy Policy to learn more. By continuing to use the site, you agree to this use of cookies and data.
EN

Hourly Weather Kachan

Today, 11 August, Tuesday

Time Temperature Precipitation Wind Pressure Humidity
00:00 +18°C° 0 mm 1 mps 741 mmHg 71%
01:00 +18°C° 0 mm 1 mps 741 mmHg 73%
02:00 +16°C° 0 mm 2 mps 741 mmHg 74%
03:00 +16°C° 0 mm 2 mps 741 mmHg 75%
04:00 +16°C° 0.1 mm 2 mps 741 mmHg 78%
05:00 +16°C° 0.1 mm 2 mps 741 mmHg 80%
06:00 +16°C° 0.1 mm 2 mps 741 mmHg 82%
07:00 +17°C° 0.1 mm 2 mps 741 mmHg 81%
08:00 +19°C° 0.1 mm 3 mps 741 mmHg 79%
09:00 +20°C° 0.1 mm 3 mps 741 mmHg 77%
10:00 +21°C° 1 mm 3 mps 741 mmHg 75%
11:00 +22°C° 1 mm 4 mps 740 mmHg 73%
12:00 +23°C° 1 mm 4 mps 740 mmHg 70%
13:00 +23°C° 1.8 mm 4 mps 740 mmHg 69%
14:00 +23°C° 1.8 mm 4 mps 740 mmHg 67%
15:00 +23°C° 1.8 mm 5 mps 740 mmHg 65%
16:00 +22°C° 0.2 mm 4 mps 740 mmHg 66%
17:00 +21°C° 0.2 mm 4 mps 740 mmHg 67%
18:00 +21°C° 0.2 mm 4 mps 740 mmHg 68%
19:00 +19°C° 0 mm 4 mps 740 mmHg 72%
20:00 +17°C° 0 mm 4 mps 740 mmHg 76%
21:00 +14°C° 0 mm 4 mps 740 mmHg 80%
22:00 +13°C° 0 mm 3 mps 740 mmHg 82%
23:00 +13°C° 0 mm 3 mps 741 mmHg 84%

Tomorrow, 12 August, Wednesday

Time Temperature Precipitation Wind Pressure Humidity
00:00 +12°C° 0 mm 3 mps 741 mmHg 87%
01:00 +11°C° 0 mm 3 mps 741 mmHg 89%
02:00 +11°C° 0 mm 3 mps 741 mmHg 91%
03:00 +10°C° 0 mm 3 mps 740 mmHg 93%
04:00 +10°C° 0 mm 3 mps 740 mmHg 93%
05:00 +10°C° 0 mm 3 mps 740 mmHg 93%
06:00 +10°C° 0 mm 3 mps 740 mmHg 94%
07:00 +11°C° 0 mm 4 mps 740 mmHg 91%
08:00 +11°C° 0 mm 4 mps 740 mmHg 88%
09:00 +12°C° 0 mm 5 mps 740 mmHg 84%
10:00 +13°C° 0 mm 4 mps 740 mmHg 81%
11:00 +14°C° 0 mm 4 mps 740 mmHg 77%
12:00 +15°C° 0 mm 4 mps 740 mmHg 73%
13:00 +17°C° 0.3 mm 4 mps 740 mmHg 72%
14:00 +17°C° 0.3 mm 4 mps 740 mmHg 71%
15:00 +17°C° 0.3 mm 5 mps 740 mmHg 71%
16:00 +17°C° 0.4 mm 5 mps 740 mmHg 73%
17:00 +16°C° 0.4 mm 5 mps 740 mmHg 76%
18:00 +16°C° 0.4 mm 6 mps 740 mmHg 78%
19:00 +15°C° 0 mm 5 mps 740 mmHg 82%
20:00 +13°C° 0 mm 5 mps 740 mmHg 86%
21:00 +12°C° 0 mm 4 mps 740 mmHg 90%
22:00 +12°C° 0 mm 4 mps 740 mmHg 92%
23:00 +11°C° 0 mm 4 mps 741 mmHg 93%

Day after tomorrow, 13 August, Thursday

Time Temperature Precipitation Wind Pressure Humidity
00:00 +11°C° 0 mm 4 mps 741 mmHg 94%
01:00 +11°C° 0 mm 4 mps 741 mmHg 92%
02:00 +12°C° 0 mm 4 mps 741 mmHg 91%
03:00 +12°C° 0 mm 4 mps 741 mmHg 89%
04:00 +12°C° 0 mm 5 mps 741 mmHg 89%
05:00 +12°C° 0 mm 5 mps 741 mmHg 88%
06:00 +10°C° 0 mm 5 mps 741 mmHg 88%
07:00 +12°C° 0 mm 5 mps 741 mmHg 85%
08:00 +13°C° 0 mm 6 mps 741 mmHg 82%
09:00 +14°C° 0 mm 6 mps 741 mmHg 79%
10:00 +14°C° 0.1 mm 6 mps 741 mmHg 74%
11:00 +15°C° 0.1 mm 6 mps 741 mmHg 69%
12:00 +16°C° 0.1 mm 6 mps 741 mmHg 64%
13:00 +16°C° 0.2 mm 6 mps 741 mmHg 64%
14:00 +16°C° 0.2 mm 5 mps 741 mmHg 64%
15:00 +16°C° 0.2 mm 5 mps 741 mmHg 64%
16:00 +17°C° 0.1 mm 4 mps 741 mmHg 66%
17:00 +15°C° 0.1 mm 4 mps 741 mmHg 68%
18:00 +16°C° 0.1 mm 3 mps 741 mmHg 71%
19:00 +13°C° 0 mm 3 mps 741 mmHg 74%
20:00 +12°C° 0 mm 3 mps 742 mmHg 78%
21:00 +11°C° 0 mm 3 mps 742 mmHg 81%
22:00 +10°C° 0 mm 3 mps 742 mmHg 82%
23:00 +10°C° 0 mm 3 mps 742 mmHg 83%

14 August, Friday

Time Temperature Precipitation Wind Pressure Humidity
00:00 +9°C° 0 mm 3 mps 742 mmHg 84%
01:00 +9°C° 0 mm 3 mps 742 mmHg 85%
02:00 +8°C° 0 mm 3 mps 742 mmHg 86%
03:00 +8°C° 0 mm 3 mps 742 mmHg 86%
04:00 +8°C° 0 mm 3 mps 742 mmHg 87%
05:00 +8°C° 0 mm 3 mps 742 mmHg 87%
06:00 +8°C° 0 mm 3 mps 742 mmHg 87%
07:00 +9°C° 0 mm 3 mps 742 mmHg 82%
08:00 +11°C° 0 mm 4 mps 742 mmHg 77%
09:00 +13°C° 0 mm 4 mps 742 mmHg 72%
10:00 +14°C° 0.1 mm 4 mps 742 mmHg 66%
11:00 +15°C° 0.1 mm 4 mps 742 mmHg 59%
12:00 +17°C° 0.1 mm 4 mps 742 mmHg 52%
13:00 +17°C° 0.1 mm 4 mps 742 mmHg 55%
14:00 +17°C° 0.1 mm 4 mps 742 mmHg 58%
15:00 +17°C° 0.1 mm 4 mps 742 mmHg 60%
16:00 +17°C° 0.1 mm 4 mps 742 mmHg 64%
17:00 +16°C° 0.1 mm 3 mps 742 mmHg 67%
18:00 +16°C° 0.1 mm 3 mps 742 mmHg 71%
19:00 +14°C° 0 mm 3 mps 742 mmHg 73%
20:00 +14°C° 0 mm 2 mps 743 mmHg 76%
21:00 +12°C° 0 mm 2 mps 743 mmHg 79%
22:00 +12°C° 0 mm 2 mps 743 mmHg 80%
23:00 +10°C° 0 mm 2 mps 743 mmHg 81%

15 August, Saturday

Time Temperature Precipitation Wind Pressure Humidity
00:00 +10°C° 0 mm 2 mps 743 mmHg 83%
01:00 +10°C° 0 mm 2 mps 743 mmHg 84%
02:00 +9°C° 0 mm 2 mps 743 mmHg 86%
03:00 +9°C° 0 mm 2 mps 743 mmHg 87%
04:00 +9°C° 0 mm 2 mps 743 mmHg 87%
05:00 +9°C° 0 mm 2 mps 743 mmHg 87%
06:00 +9°C° 0 mm 2 mps 743 mmHg 88%
07:00 +12°C° 0 mm 2 mps 743 mmHg 82%
08:00 +13°C° 0 mm 3 mps 743 mmHg 76%
09:00 +16°C° 0 mm 3 mps 743 mmHg 70%
10:00 +17°C° 0 mm 3 mps 742 mmHg 65%
11:00 +18°C° 0 mm 3 mps 742 mmHg 59%
12:00 +19°C° 0 mm 3 mps 742 mmHg 54%
13:00 +20°C° 0 mm 3 mps 742 mmHg 53%
14:00 +20°C° 0 mm 3 mps 742 mmHg 52%
15:00 +21°C° 0 mm 3 mps 742 mmHg 51%
16:00 +20°C° 0 mm 3 mps 742 mmHg 56%
17:00 +20°C° 0 mm 2 mps 741 mmHg 61%
18:00 +19°C° 0 mm 2 mps 741 mmHg 66%
19:00 +18°C° 0.1 mm 2 mps 741 mmHg 72%
20:00 +17°C° 0.1 mm 2 mps 741 mmHg 79%
21:00 +15°C° 0.1 mm 1 mps 741 mmHg 86%
22:00 +15°C° 0.1 mm 1 mps 741 mmHg 86%
23:00 +14°C° 0.1 mm 1 mps 741 mmHg 86%

16 August, Sunday

Time Temperature Precipitation Wind Pressure Humidity
00:00 +14°C° 0.1 mm 1 mps 741 mmHg 86%
01:00 +13°C° 0 mm 1 mps 741 mmHg 87%
02:00 +13°C° 0 mm 1 mps 741 mmHg 87%
03:00 +13°C° 0 mm 2 mps 742 mmHg 87%
04:00 +12°C° 0 mm 2 mps 742 mmHg 87%
05:00 +12°C° 0 mm 2 mps 742 mmHg 86%
06:00 +10°C° 0 mm 2 mps 742 mmHg 86%
07:00 +12°C° 0 mm 3 mps 742 mmHg 80%
08:00 +13°C° 0 mm 3 mps 742 mmHg 73%
09:00 +16°C° 0 mm 3 mps 742 mmHg 67%
10:00 +17°C° 0 mm 3 mps 742 mmHg 63%
11:00 +18°C° 0 mm 4 mps 742 mmHg 58%
12:00 +19°C° 0 mm 4 mps 743 mmHg 53%
13:00 +19°C° 0 mm 4 mps 743 mmHg 55%
14:00 +19°C° 0 mm 4 mps 743 mmHg 57%
15:00 +19°C° 0 mm 4 mps 743 mmHg 58%
16:00 +19°C° 0 mm 4 mps 743 mmHg 61%
17:00 +19°C° 0 mm 3 mps 743 mmHg 63%
18:00 +18°C° 0 mm 3 mps 743 mmHg 66%
19:00 +17°C° 0 mm 3 mps 743 mmHg 73%
20:00 +14°C° 0 mm 3 mps 743 mmHg 80%
21:00 +13°C° 0 mm 3 mps 743 mmHg 87%
22:00 +14°C° 0 mm 2 mps 743 mmHg 88%
23:00 +13°C° 0 mm 2 mps 744 mmHg 90%
Show more